Location: Saluda
(35.2377°N, 82.3468°W)
Time: 05:04:26
(UTC+00:00)

Vanguard 2 Rocket - Pass Details

Date: 04 October 2022
Orbit: 555 x 3321 km, 32.9° (Epoch: 05 December)

Event Time Altitude Azimuth Distance (km) Brightness Sun altitude
Rises 23:25:09 0° 193° (SSW) 7,217 11.7 -4.1°
Reaches altitude 10° 23:32:31 10° 178° (S) 6,269 11.2 -5.6°
Maximum altitude 23:44:15 19° 141° (SE) 5,278 10.4 -8.0°
Drops below altitude 10° 23:54:27 10° 104° (ESE) 5,447 10.2 -10.1°
Enters shadow 23:54:33 10° 104° (ESE) 5,454 10.2 -10.1°
Sets 23:59:56 0° 88° (E) 6,016 - -11.2°
